Weather History for Grayling, MI

Change the Weather History Date:

Thursday, May 16, 2013

  Actual Average (KHTL) Record (KHTL)
Temperature  
Mean Temperature 54 °F 54 °F  
Max Temperature 71 °F 66 °F 87 °F (1962)
Min Temperature 38 °F 42 °F 19 °F (1921)
Degree Days  
Heating Degree Days 10 11  
Month to date heating degree days 218  
Since 1 July heating degree days 7879  
Cooling Degree Days 0 0  
Month to date cooling degree days 0  
Year to date cooling degree days 2  
Growing Degree Days 4 (Base 50)    
Moisture  
Dew Point 36 °F    
Average Humidity 53    
Maximum Humidity 98    
Minimum Humidity 20    
Precipitation  
Precipitation 0.00 in 0.09 in 0.80 in (1923)
Month to date precipitation 1.36  
Year to date precipitation 8.40  
Sea Level Pressure  
Sea Level Pressure 29.92 in    
Wind  
Wind Speed 5 mph (NW)    
Max Wind Speed 18 mph    
Max Gust Speed 26 mph    
Visibility 10 miles    
Events      
T = Trace of Precipitation, MM = Missing Value Source: NWS Daily Summary

Daily Weather History Graph

Daily Weather History Graph

Search for Another Location

Airport:

Trip Planner

Search our weather history database for the weather conditions in past years. The results will help you decide how hot, cold, wet, or windy it might be!

Date:

Astronomy

May. 16, 2013 Rise Set
Actual Time 6:09 AM EDT 9:01 PM EDT
Civil Twilight 5:35 AM EDT 9:36 PM EDT
Nautical Twilight 4:52 AM EDT 10:19 PM EDT
Astronomical Twilight 4:01 AM EDT 11:10 PM EDT
Moon 11:46 AM EDT (5/16) 1:18 AM EDT (5/16)
Length of Visible Light 16h 00m
Length of Day
14h 52m
Waxing Crescent, 35% of the Moon is Illuminated
May 16
Waxing Crescent
May 18
First Quarter
May 25
Full
May 31
Last Quarter
Jun 8
New

Hourly Weather History & Observations

Time (EDT) Temp. Windchill Dew Point Humidity Pressure Visibility Wind Dir Wind Speed Gust Speed Precip Events Conditions
12:15 AM 45.0 °F - 39.2 °F 80% 29.80 in 10.0 mi Calm Calm - N/A   Clear
12:55 AM 41.7 °F - 38.1 °F 87% 29.80 in 10.0 mi Calm Calm - N/A   Clear
1:15 AM 41.7 °F - 39.0 °F 90% 29.80 in 10.0 mi Calm Calm - N/A   Clear
1:34 AM 41.0 °F - 38.1 °F 89% 29.79 in 10.0 mi Calm Calm - N/A   Clear
1:55 AM 41.0 °F - 37.4 °F 87% 29.79 in 10.0 mi Calm Calm - N/A   Clear
2:15 AM 40.1 °F 36.9 °F 38.1 °F 93% 29.79 in 10.0 mi WSW 4.6 mph - N/A   Clear
2:34 AM 48.0 °F - 40.8 °F 76% 29.79 in 10.0 mi Calm Calm - N/A   Clear
2:55 AM 39.6 °F 36.3 °F 35.2 °F 85% 29.79 in 10.0 mi WSW 4.6 mph - N/A   Clear
3:15 AM 50.9 °F - 42.3 °F 72% 29.78 in 10.0 mi WSW 6.9 mph - N/A   Clear
3:35 AM 50.9 °F - 41.9 °F 71% 29.79 in 10.0 mi WSW 4.6 mph - N/A   Clear
3:54 AM 50.9 °F - 42.4 °F 73% 29.79 in 10.0 mi WSW 4.6 mph - N/A   Clear
4:15 AM 50.9 °F - 42.8 °F 74% 29.79 in 10.0 mi WSW 3.5 mph - N/A   Clear
4:35 AM 41.4 °F 38.4 °F 36.9 °F 84% 29.80 in 10.0 mi NW 4.6 mph - N/A   Clear
4:54 AM 40.3 °F 37.1 °F 39.0 °F 95% 29.82 in 10.0 mi WSW 4.6 mph - N/A   Clear
5:15 AM 42.3 °F - 39.4 °F 90% 29.82 in 10.0 mi Calm Calm - N/A   Clear
5:35 AM 41.7 °F - 39.0 °F 90% 29.83 in 10.0 mi Calm Calm - N/A   Clear
5:55 AM 41.5 °F - 41.0 °F 98% 29.84 in 10.0 mi Calm Calm - N/A   Clear
6:14 AM 40.1 °F - 39.2 °F 97% 29.84 in 10.0 mi Calm Calm - N/A   Clear
6:35 AM 38.3 °F 34.8 °F 37.2 °F 96% 29.85 in 10.0 mi West 4.6 mph - N/A   Clear
6:55 AM 48.4 °F - 43.7 °F 84% 29.86 in 10.0 mi West 4.6 mph - N/A   Scattered Clouds
7:15 AM 47.3 °F - 44.8 °F 91% 29.86 in 10.0 mi Calm Calm - N/A   Clear
7:35 AM 53.6 °F - 44.8 °F 72% 29.87 in 10.0 mi West 3.5 mph - N/A   Clear
7:54 AM 53.6 °F - 42.3 °F 65% 29.87 in 10.0 mi WSW 3.5 mph - N/A   Clear
8:15 AM 55.9 °F - 42.3 °F 60% 29.88 in 10.0 mi NNW 4.6 mph - N/A   Clear
8:35 AM 56.1 °F - 39.4 °F 53% 29.89 in 10.0 mi NNW 3.5 mph - N/A   Clear
8:54 AM 58.5 °F - 40.3 °F 51% 29.89 in 10.0 mi North 3.5 mph - N/A   Clear
9:15 AM 59.7 °F - 38.5 °F 45% 29.90 in 10.0 mi NW 3.5 mph - N/A   Clear
9:35 AM 61.0 °F - 36.1 °F 40% 29.90 in 10.0 mi North 9.2 mph - N/A   Clear
9:54 AM 62.1 °F - 35.4 °F 37% 29.91 in 10.0 mi North 8.1 mph - N/A   Clear
10:15 AM 63.5 °F - 35.1 °F 35% 29.91 in 10.0 mi North 6.9 mph - N/A   Clear
10:35 AM 66.2 °F - 35.4 °F 32% 29.92 in 10.0 mi North 8.1 mph - N/A   Clear
10:54 AM 67.3 °F - 34.9 °F 30% 29.92 in 10.0 mi NNW 13.8 mph 20.7 mph N/A   Clear
11:15 AM 68.5 °F - 36.1 °F 30% 29.93 in 10.0 mi WNW 13.8 mph 18.4 mph N/A   Clear
11:35 AM 68.5 °F - 34.9 °F 29% 29.94 in 10.0 mi NW 12.7 mph 25.3 mph N/A   Clear
11:54 AM 68.5 °F - 35.2 °F 29% 29.94 in 10.0 mi NW 12.7 mph 20.7 mph N/A   Clear
12:15 PM 68.5 °F - 33.1 °F 27% 29.94 in 10.0 mi NW 17.3 mph 26.5 mph N/A   Clear
12:35 PM 68.5 °F - 34.5 °F 29% 29.94 in 10.0 mi NNW 13.8 mph 18.4 mph N/A   Clear
12:54 PM 68.5 °F - 35.2 °F 29% 29.94 in 10.0 mi NW 10.4 mph 18.4 mph N/A   Clear
1:15 PM 68.5 °F - 32.4 °F 26% 29.94 in 10.0 mi WNW 18.4 mph 23.0 mph N/A   Clear
1:35 PM 68.5 °F - 33.1 °F 27% 29.95 in 10.0 mi North 13.8 mph 19.6 mph N/A   Clear
1:54 PM 68.5 °F - 32.0 °F 26% 29.95 in 10.0 mi NW 13.8 mph 21.9 mph N/A   Clear
2:14 PM 68.5 °F - 31.8 °F 26% 29.95 in 10.0 mi NW 8.1 mph 21.9 mph N/A   Clear
2:35 PM 68.9 °F - 32.0 °F 25% 29.95 in 10.0 mi NNW 13.8 mph 21.9 mph N/A   Clear
3:14 PM 70.0 °F - 32.2 °F 25% 29.94 in 10.0 mi NNW 12.7 mph 19.6 mph N/A   Clear
3:35 PM 70.3 °F - 30.6 °F 23% 29.95 in 10.0 mi NW 12.7 mph 21.9 mph N/A   Clear
3:55 PM 70.0 °F - 27.1 °F 20% 29.95 in 10.0 mi WNW 17.3 mph 20.7 mph N/A   Clear
4:14 PM 71.1 °F - 28.4 °F 20% 29.95 in 10.0 mi WNW 15.0 mph 19.6 mph N/A   Clear
4:35 PM 70.2 °F - 30.7 °F 23% 29.95 in 10.0 mi NNW 12.7 mph 21.9 mph N/A   Clear
4:55 PM 68.5 °F - 27.1 °F 21% 29.96 in 10.0 mi NNW 11.5 mph 19.6 mph N/A   Clear
5:14 PM 68.5 °F - 26.2 °F 20% 29.96 in 10.0 mi NW 15.0 mph 18.4 mph N/A   Clear
5:35 PM 68.5 °F - 27.9 °F 22% 29.97 in 10.0 mi NW 6.9 mph 16.1 mph N/A   Clear
6:15 PM 68.5 °F - 29.7 °F 23% 29.97 in 10.0 mi WNW 5.8 mph - N/A   Clear
6:35 PM 68.5 °F - 31.5 °F 25% 29.98 in 10.0 mi NNW 10.4 mph 16.1 mph N/A   Clear
6:54 PM 68.4 °F - 32.2 °F 26% 29.98 in 10.0 mi NNW 12.7 mph 16.1 mph N/A   Clear
7:15 PM 66.2 °F - 31.3 °F 27% 29.99 in 10.0 mi NW 10.4 mph - N/A   Clear
7:35 PM 64.0 °F - 32.2 °F 30% 29.99 in 10.0 mi North 9.2 mph - N/A   Clear
7:54 PM 63.0 °F - 32.2 °F 32% 29.99 in 10.0 mi North 9.2 mph - N/A   Clear
8:15 PM 61.0 °F - 33.1 °F 35% 30.01 in 10.0 mi NNW 9.2 mph - N/A   Clear
8:35 PM 58.6 °F - 32.9 °F 38% 30.01 in 10.0 mi NNW 8.1 mph - N/A   Clear
8:54 PM 55.8 °F - 34.9 °F 45% 30.03 in 10.0 mi NNW 5.8 mph - N/A   Clear
9:15 PM 53.6 °F - 34.3 °F 48% 30.04 in 10.0 mi NNW 5.8 mph - N/A   Clear
9:35 PM 52.9 °F - 35.6 °F 52% 30.04 in 10.0 mi Calm Calm - N/A   Clear
9:54 PM 52.3 °F - 36.0 °F 54% 30.06 in 10.0 mi WNW 4.6 mph - N/A   Clear
10:15 PM 50.9 °F - 36.5 °F 58% 30.07 in 10.0 mi NW 5.8 mph - N/A   Clear
10:35 PM 46.2 °F 45.0 °F 36.7 °F 69% 30.07 in 10.0 mi NNW 3.5 mph - N/A   Clear
10:54 PM 46.2 °F - 36.5 °F 69% 30.07 in 10.0 mi Calm Calm - N/A   Clear
11:15 PM 42.3 °F - 35.1 °F 76% 30.08 in 10.0 mi Calm Calm - N/A   Clear
11:35 PM 39.7 °F - 33.8 °F 79% 30.08 in 10.0 mi Calm Calm - N/A   Clear
11:54 PM 41.2 °F - 35.2 °F 79% 30.08 in 10.0 mi Calm Calm - N/A   Clear